星链-2055 (STARLINK-2055 )

导读

STARLINK-2055是美国SpaceX星链(Starlink)项目的卫星,于2021年1月20日发射升空,属于星链星座的组成部分。星链项目旨在构建全球卫星互联网星座,为全球范围提供低延迟、高速率的宽带互联网服务,尤其为偏远地区、海上和航空等场景提供网络覆盖支持。该卫星运行在近地轨道,依托星座组网设计,持续推进全球卫星互联网的部署与服务能力建设,是SpaceX大规模星座组网计划中的一颗在轨运营卫星,支撑星链系统的全球覆盖目标逐步落地。

基本信息
目录编号:
47358
目录名称:
STARLINK-2055
国际标识:
2021-005K
轨道中心:
EARTH
卫星名称:
星链-2055
卫星全名:
星链-2055 (STARLINK-2055 )
卫星状态:
在轨 (已飞行1975 天)
发射日期:
2021-01-20 UTC
国别 :
美国 (US)
星等 :
--
轨道信息
数据来源 国际轨道数据
星历时间: 2026-06-17T23:03:35+0800
1天前
查看轨道信息
半长轴: 6850.273km
偏心率: 0.0000512
轨道倾角: 53.160°
近地点辐角 0.502°
升交点赤经 292.473°
平近点角 359.598°
近地点: 471.785km
远地点: 472.487km
周期: 94.042分钟
每日圈数: 15.31232
详细信息
固有亮度:
5
最大亮度:
2.5
卫星平台:
Starlink V1.0
覆盖范围:
全球
运营商:
太空探索技术公司
运营商所在国:
美国
制造商(研发单位):
太空探索技术公司
制造商所在国:
美国
使用方式:
暂无
卫星简介
星链(Starlink)计划是由太空探索技术公司(SpaceX)提出的一个巨型低轨卫星互联网星座项目,计划在2019年至2024年间在太空搭建由约1.2万颗卫星组成的“星链”网络,其中1584颗将部署在地球上空550千米处的近地轨道,并从2020年开始工作。该卫星仍在工作。
2D轨道图
3D轨道图
轨道高度分析图
轨道倾角分析图
轨道综合分析图
查看轨道综合分析图